Terminal Aerodrome Forecast
Issued by NWS

Home | Current Version | Previous Version | Text Only | Print | Product List | Glossary On
Versions: 1 2 3 4 5 6 7 8 9 10 11 12 13 14 15 16 17 18 19 20 21 22 23 24 25 26 27 28 29 30 31 32 33 34 35 36 37 38 39 40 41 42 43 44 45 46 47 48 49 50
000
FTUS46 KEKA 201100
TAFACV
TAF
KACV 201140Z 2012/2112 23003KT 1/2SM FG OVC003
     FM201600 VRB05KT 4SM BR BKN006
     FM201800 32006KT P6SM BKN006
     FM202200 32005KT P6SM SCT006
     FM210100 18004KT 3SM BR OVC007=

USA.gov is the U.S. government's official web portal to all federal, state and local government web resources and services.